Regional Weather Roundup
Issued by NWS

Home | Current Version | Previous Version | Text Only | Print | Product List | Glossary Off
Versions: 1 2 3 4 5 6 7 8 9 10 11 12 13 14 15 16 17 18 19 20 21 22 23 24 25 26 27 28 29 30 31 32 33 34 35 36 37 38 39 40 41 42 43 44 45 46 47 48 49 50

000
ASUS45 KBOI 291010
RWRID
WEATHER ROUNDUP FOR IDAHO
NATIONAL WEATHER SERVICE BOISE ID
300 AM MST THU JAN 29 2015

NOTE: "FAIR" INDICATES FEW OR NO CLOUDS BELOW 12000 FEET
WITH NO SIGNIFICANT WEATHER AND/OR OBSTRUCTIONS TO VISIBILITY

IDZ012-014-291100-
SOUTHWEST IDAHO


CITY           SKY/WX    TMP DP  RH WIND       PRES   REMARKS
BOISE          CLOUDY    37  34  89 SE9       30.42R WCI  30
CALDWELL       MOCLDY    34  27  75 SE7       30.45R WCI  28
MOUNTAIN HOME  CLEAR     32  30  94 E10       30.43R WCI  24
$$

IDZ016-017-291100-
SOUTHCENTRAL IDAHO


CITY           SKY/WX    TMP DP  RH WIND       PRES   REMARKS
BURLEY         CLOUDY    36  33  89 E7        30.43R WCI  30
JEROME         CLOUDY    34  31  88 E7        30.43R WCI  28
TWIN FALLS     CLOUDY    34  31  88 E5        30.42R FOG     WCI  30
$$

IDZ019>023-291100-
SOUTHEAST IDAHO


CITY           SKY/WX    TMP DP  RH WIND       PRES   REMARKS
IDAHO FALLS    CLOUDY    34  33  96 N3        30.45R FOG
POCATELLO      CLOUDY    32  32 100 CALM      30.45R FOG
REXBURG        CLOUDY    32  32 100 CALM      30.44R FOG
$$

IDZ006-010-011-018-031-032-291100-
CENTRAL IDAHO MOUNTAINS


CITY           SKY/WX    TMP DP  RH WIND       PRES   REMARKS
MCCALL         CLEAR     19  16  88 CALM      30.36R
HAILEY         CLOUDY    28  28 100 CALM      30.45R FOG
STANLEY          N/A     13   7  77 CALM      30.43R
SALMON         CLOUDY    18  16  93 CALM      30.47R VSB 1/2
CHALLIS        CLOUDY    30  28  92 S3        30.44R
$$

IDZ002-004-006-007-026-291100-
NORTHERN IDAHO


CITY           SKY/WX    TMP DP  RH WIND       PRES   REMARKS
LEWISTON       PTCLDY    34  33  96 CALM      30.44R
LOWELL           N/A     33  31  92 CALM      30.51S
COEUR D`ALENE  CLOUDY    34  32  93 NE10      30.44R WCI  26
MULLAN PASS    CLEAR     27  23  85 S5        30.35S WCI  22
$$



USA.gov is the U.S. government's official web portal to all federal, state and local government web resources and services.